Погода в Сильване

Турция     38°08′32″N   41°00′01″E
темп.,
°C
ветер,
м/с
пор.,
м/с
влажн.,
%
обл.,
%
осадки,
мм/ч
давл.,
гПа
погр.,
м
8 марта, пн
пн800:00+6в228799 0.1 101641
03:00+7юв3878100 0.2 1015311
06:00+5юв348483 0.1 1014107
09:00+8ююв496871 0.1 1013652
12:00+11ююз685485 0.4 10121529
15:00+9сз456863 1.9 1011688
18:00+8сз22640 0.0 101225
21:00+5з11730 0.0 101522
9 марта, вт
вт900:00+4ссз23700 0.0 101624
03:00+3сз23620 0.0 101725
06:00+1с016939 0.0 101822
09:00+5вюв116069 0.0 1019294
12:00+9юз1340100 0.0 10181121
15:00+10зюз3440100 0.0 10161740
18:00+7з224940 0.0 101722
21:00+5св115470 0.0 102022
10 марта, ср
ср1000:00+4с015784 0.0 102022
03:00+3ссз115752 0.0 102022
06:00+2ссз11580 0.0 102222
09:00+7ссв11450 0.0 1022205
12:00+10ююв224139 0.0 10201224
15:00+11ююв233870 0.0 10181420
18:00+9вюв2253100 0.0 101724
21:00+8вюв2355100 0.0 101847
11 марта, чт
чт1100:00+6в2271100 0.0 101622
03:00+7ссв1265100 0.1 101424
06:00+5юв4588100 0.4 1013383
09:00+4в3494100 4.6 1011198
12:00+7в2284100 0.4 1007334
15:00+9ююв2276100 0.5 1003564
18:00+7ссв1179100 9.8 1003306
21:00+5сз228988 9.8 100661
12 марта, пт
пт1200:00+2сз586068 0.1 1008298
03:000ссз7114942 0.1 1011305
06:00−2ссз813410 0.0 1014688
09:000с1116250 0.0 10171272
12:00+3с811240 0.0 10171379
15:00+4с810260 0.0 10181293
18:00+1ссв48380 0.0 1021298
21:00−1с22450 0.0 102536